EW0051 Weather Reports


time (UTC)temp
C
wind
direction
speed
KPH
gust
KPH
rain 1hr
cm
rain 24hr
cm
rain mn
cm
humidity
%
barometer
mb
20260502214254 12 36 0.0 0.0 0.00 0.00 0.00 82 1013.4
20260502213729 12 36 0.0 0.0 0.00 0.00 0.00 82 1013.4
20260502213305 12 37 0.0 0.0 0.00 0.00 0.00 82 1013.4
20260502212745 12 36 0.0 0.0 0.00 0.00 0.00 82 1013.4
20260502212225 13 37 0.0 0.0 0.00 0.00 0.00 82 1013.4
20260502211758 13 36 0.0 0.0 0.00 0.00 0.00 82 1013.3
20260502211237 13 36 0.0 0.0 0.00 0.00 0.00 81 1013.3
20260502210810 13 36 0.0 0.0 0.00 0.00 0.00 81 1013.3
20260502210336 13 37 0.0 0.0 0.00 0.00 0.00 81 1013.3
20260502205233 13 36 0.0 0.0 0.00 0.00 0.00 81 1013.5
20260502204801 13 36 0.0 0.0 0.00 0.00 0.00 81 1013.4
20260502204236 13 36 0.0 0.0 0.00 0.00 0.00 80 1013.6
20260502203809 13 36 0.0 0.0 0.00 0.00 0.00 80 1013.7
20260502203238 13 26 0.0 0.0 0.00 0.00 0.00 80 1013.8
20260502202803 14 26 0.0 3.2 0.00 0.00 0.00 79 1013.6
20260502202236 14 26 0.0 3.2 0.00 0.00 0.00 79 1013.6
20260502201751 14 13 0.0 4.8 0.00 0.00 0.00 79 1013.7
20260502201323 14 13 0.0 4.8 0.00 0.00 0.00 79 1013.8
20260502200749 15 16 0.0 1.6 0.00 0.00 0.00 79 1013.7
20260502200223 15 13 0.0 4.8 0.00 0.00 0.00 78 1013.8
20260502195747 15 13 0.0 4.8 0.00 0.00 0.00 78 1013.7
20260502195224 15 20 0.0 4.8 0.00 0.00 0.00 77 1013.8
20260502194746 15 356 0.0 4.8 0.00 0.00 0.00 76 1013.8
20260502194219 16 351 0.0 4.8 0.00 0.00 0.00 75 1013.8
20260502193749 16 359 0.0 4.8 0.00 0.00 0.00 74 1013.7
20260502193225 16 359 0.0 6.4 0.00 0.00 0.00 72 1013.7
20260502192750 16 353 0.0 6.4 0.00 0.00 0.00 70 1013.7
20260502192312 16 5 0.0 3.2 0.00 0.00 0.00 67 1013.7
20260502191253 17 9 0.0 6.4 0.00 0.00 0.00 62 1013.7
20260502190722 17 9 1.6 6.4 0.00 0.00 0.00 61 1013.7
20260502190251 17 344 0.0 6.4 0.00 0.00 0.00 61 1013.7
20260502185808 17 3 0.0 6.4 0.00 0.00 0.00 61 1013.6
20260502185232 18 15 0.0 8.0 0.00 0.00 0.00 62 1013.6
20260502184758 18 15 0.0 9.7 0.00 0.00 0.00 63 1013.5
20260502184224 18 10 0.0 9.7 0.00 0.00 0.00 64 1013.5
20260502183746 19 12 0.0 9.7 0.00 0.00 0.00 66 1013.6
20260502183220 19 352 3.2 9.7 0.00 0.00 0.00 66 1013.6
20260502182253 20 6 1.6 8.0 0.00 0.00 0.00 68 1013.6
20260502181726 20 0 1.6 6.4 0.00 0.00 0.00 68 1013.6
20260502181242 20 351 0.0 9.7 0.00 0.00 0.00 68 1013.6
20260502180809 21 348 3.2 9.7 0.00 0.00 0.00 67 1013.5
20260502180236 21 9 1.6 8.0 0.00 0.00 0.00 67 1013.5
20260502164334 23 324 0.0 8.0 0.00 0.00 0.00 59 1013.7
20260502163945 23 349 3.2 14.5 0.00 0.00 0.00 59 1013.8
20260502162810 23 30 1.6 14.5 0.00 0.00 0.00 58 1013.9
20260502162327 23 345 1.6 14.5 0.00 0.00 0.00 59 1013.9
20260502161849 23 304 3.2 14.5 0.00 0.00 0.00 58 1014.0
20260502160818 23 337 0.0 9.7 0.00 0.00 0.00 57 1013.9
20260502160330 23 180 1.6 9.7 0.00 0.00 0.00 58 1014.0
20260502152305 23 266 3.2 14.5 0.00 0.00 0.00 57 1014.3
20260502151819 23 5 3.2 14.5 0.00 0.00 0.00 56 1014.4
20260502151339 23 276 3.2 11.3 0.00 0.00 0.00 55 1014.4
20260502150804 23 184 1.6 11.3 0.00 0.00 0.00 55 1014.3
20260502150320 24 276 3.2 9.7 0.00 0.00 0.00 54 1014.4
20260502130317 24 304 1.6 9.7 0.00 0.00 0.00 48 1015.3
20260502123800 25 334 1.6 16.1 0.00 0.00 0.00 44 1015.5
20260502123321 25 352 4.8 16.1 0.00 0.00 0.00 42 1015.5
20260502122247 24 5 1.6 14.5 0.00 0.00 0.00 43 1015.4
20260502121807 24 355 1.6 14.5 0.00 0.00 0.00 41 1015.5
20260502121324 24 332 3.2 14.5 0.00 0.00 0.00 42 1015.6
20260502120251 23 300 3.2 11.3 0.00 0.00 0.00 42 1015.6
20260502115719 23 37 3.2 11.3 0.00 0.00 0.00 42 1015.7
20260502115239 22 171 0.0 11.3 0.00 0.00 0.00 46 1015.6
20260502114757 22 5 0.0 11.3 0.00 0.00 0.00 46 1015.8
20260502114221 22 19 1.6 11.3 0.00 0.00 0.00 46 1015.9
20260502113837 22 352 3.2 11.3 0.00 0.00 0.00 46 1015.9
20260502112856 22 0 1.6 9.7 0.00 0.00 0.00 47 1015.9
20260502111727 22 290 3.2 16.1 0.00 0.00 0.00 47 1016.0
20260502111251 22 279 1.6 9.7 0.00 0.00 0.00 46 1016.0
20260502110717 22 8 4.8 11.3 0.00 0.00 0.00 44 1016.0
20260502110231 23 337 1.6 14.5 0.00 0.00 0.00 45 1015.9
20260502105753 23 346 4.8 14.5 0.00 0.00 0.00 44 1016.0
20260502105205 23 317 1.6 9.7 0.00 0.00 0.00 44 1015.9
20260502104722 22 197 0.0 11.3 0.00 0.00 0.00 47 1015.9
20260502104233 22 286 3.2 11.3 0.00 0.00 0.00 48 1016.0
20260502103751 21 191 1.6 6.4 0.00 0.00 0.00 50 1016.0
20260502103309 21 337 1.6 4.8 0.00 0.00 0.00 49 1015.9
20260502102237 21 186 0.0 9.7 0.00 0.00 0.00 47 1015.9
20260502101227 22 146 4.8 14.5 0.00 0.00 0.00 44 1016.1
20260502100657 22 352 3.2 8.0 0.00 0.00 0.00 44 1016.2
20260502100211 22 186 3.2 14.5 0.00 0.00 0.00 42 1016.1
20260502091233 23 210 3.2 11.3 0.00 0.00 0.00 39 1016.0
20260502090658 23 194 3.2 9.7 0.00 0.00 0.00 38 1016.0
20260502090216 23 174 3.2 16.1 0.00 0.00 0.00 39 1016.1
20260502071215 18 171 0.0 8.0 0.00 0.00 0.00 52 1016.7
20260502070642 17 180 0.0 4.8 0.00 0.00 0.00 54 1016.7
20260502070203 17 194 0.0 4.8 0.00 0.00 0.00 53 1016.8
20260502065725 16 180 1.6 8.0 0.00 0.00 0.00 54 1016.7
20260502065147 15 186 0.0 8.0 0.00 0.00 0.00 55 1016.7
20260502064800 15 214 1.6 8.0 0.00 0.00 0.00 55 1016.7
20260502063726 15 200 1.6 8.0 0.00 0.00 0.00 56 1016.7
20260502063157 15 180 1.6 9.7 0.00 0.00 0.00 57 1016.8
20260502062717 14 154 0.0 9.7 0.00 0.00 0.00 58 1016.8
20260502062234 14 180 1.6 8.0 0.00 0.00 0.00 59 1016.7
20260502061200 13 188 1.6 9.7 0.00 0.00 0.00 60 1016.8
20260502060717 13 170 4.8 8.0 0.00 0.00 0.00 60 1016.8
20260502060237 13 180 1.6 6.4 0.00 0.00 0.00 62 1016.9
20260502055702 12 191 1.6 8.0 0.00 0.00 0.00 63 1016.8
20260502055224 12 180 1.6 8.0 0.00 0.00 0.00 65 1016.8
20260502054644 12 180 0.0 3.2 0.00 0.00 0.00 66 1016.8
20260502054204 11 178 0.0 4.8 0.00 0.00 0.00 67 1016.9
20260502053732 11 181 0.0 4.8 0.00 0.00 0.00 68 1016.8
20260502053154 11 186 0.0 1.6 0.00 0.00 0.00 70 1016.9
20260502052631 11 190 0.0 4.8 0.00 0.00 0.00 70 1016.9
20260502052249 10 190 1.6 4.8 0.00 0.00 0.00 72 1016.9
20260502051227 10 180 0.0 0.0 0.00 0.00 0.00 74 1016.9
20260502050704 10 180 0.0 0.0 0.00 0.00 0.00 75 1016.9
20260502050232 9 180 0.0 0.0 0.00 0.00 0.00 75 1017.0
20260502045129 9 180 0.0 0.0 0.00 0.00 0.00 77 1017.0
20260502044652 9 180 0.0 0.0 0.00 0.00 0.00 77 1017.0
20260502044319 9 180 0.0 0.0 0.00 0.00 0.00 78 1017.1
20260502042728 8 180 0.0 0.0 0.00 0.00 0.00 79 1017.1
20260502041621 8 180 0.0 0.0 0.00 0.00 0.00 80 1017.1
20260502041156 8 180 0.0 0.0 0.00 0.00 0.00 80 1017.2
20260502040634 8 180 0.0 0.0 0.00 0.00 0.00 80 1017.2
20260502040254 8 180 0.0 0.0 0.00 0.00 0.00 80 1017.1
20260502035244 8 180 0.0 0.0 0.00 0.00 0.00 79 1017.2
20260502034146 9 180 0.0 0.0 0.00 0.00 0.00 79 1017.3
20260502033715 9 180 0.0 0.0 0.00 0.00 0.00 79 1017.3
20260502032700 9 180 0.0 0.0 0.00 0.00 0.00 79 1017.3
20260502032129 9 180 0.0 0.0 0.00 0.00 0.00 79 1017.3
20260502031657 9 180 0.0 0.0 0.00 0.00 0.00 78 1017.4
20260502031134 9 180 0.0 0.0 0.00 0.00 0.00 78 1017.5
20260502030703 9 180 0.0 0.0 0.00 0.00 0.00 78 1017.6
20260502030131 9 180 0.0 0.0 0.00 0.00 0.00 78 1017.5
20260502025629 10 180 0.0 0.0 0.00 0.00 0.00 78 1017.5
20260502025100 10 180 0.0 0.0 0.00 0.00 0.00 78 1017.6
20260502024625 10 180 0.0 0.0 0.00 0.00 0.00 78 1017.7
20260502024158 10 180 0.0 0.0 0.00 0.00 0.00 78 1017.6
20260502023100 10 180 0.0 0.0 0.00 0.00 0.00 77 1017.6
20260502022626 10 180 0.0 0.0 0.00 0.00 0.00 78 1017.8
20260502022249 10 180 0.0 0.0 0.00 0.00 0.00 77 1017.8
20260502021918 10 180 0.0 0.0 0.00 0.00 0.00 77 1017.9
20260502014727 10 180 0.0 0.0 0.00 0.00 0.00 77 1018.2
20260502013136 10 180 0.0 0.0 0.00 0.00 0.00 76 1018.3
20260502012611 10 180 0.0 0.0 0.00 0.00 0.00 76 1018.3
20260502012148 10 180 0.0 0.0 0.00 0.00 0.00 76 1018.4
20260502011058 10 180 0.0 0.0 0.00 0.00 0.00 76 1018.6
20260502010629 11 180 0.0 0.0 0.00 0.00 0.00 76 1018.6
20260502010057 11 180 0.0 0.0 0.00 0.00 0.00 76 1018.7
20260502005622 11 180 0.0 0.0 0.00 0.00 0.00 76 1018.7
20260502005103 11 180 0.0 0.0 0.00 0.00 0.00 76 1018.8
20260502004632 11 180 0.0 0.0 0.00 0.00 0.00 76 1018.8
20260502004102 11 180 0.0 0.0 0.00 0.00 0.00 75 1018.9
20260502003638 11 180 0.0 0.0 0.00 0.00 0.00 75 1018.9
20260502003120 11 180 0.0 0.0 0.00 0.00 0.00 75 1019.0
20260502002642 11 180 0.0 0.0 0.00 0.00 0.00 75 1019.0
20260502002119 11 180 0.0 0.0 0.00 0.00 0.00 75 1019.1
20260502001556 11 180 0.0 0.0 0.00 0.00 0.00 75 1019.1
20260502001130 11 180 0.0 0.0 0.00 0.00 0.00 74 1019.1
20260502000606 11 180 0.0 0.0 0.00 0.00 0.00 74 1019.2
20260502000130 11 180 0.0 0.0 0.00 0.00 0.00 74 1019.2
20260501235602 11 180 0.0 0.0 0.00 0.00 0.00 73 1019.2
20260501235136 11 180 0.0 0.0 0.00 0.00 0.00 73 1019.2
20260501234607 11 180 0.0 0.0 0.00 0.00 0.00 73 1019.2
20260501234044 12 180 0.0 0.0 0.00 0.00 0.00 72 1019.3
20260501233619 12 180 0.0 0.0 0.00 0.00 0.00 72 1019.4
20260501233051 12 180 0.0 0.0 0.00 0.00 0.00 72 1019.5
20260501232621 12 180 0.0 0.0 0.00 0.00 0.00 71 1019.4
20260501231606 12 180 0.0 0.0 0.00 0.00 0.00 71 1019.5
20260501231040 12 180 0.0 0.0 0.00 0.00 0.00 71 1019.5
20260501230614 12 180 0.0 0.0 0.00 0.00 0.00 70 1019.5
20260501230045 12 180 0.0 0.0 0.00 0.00 0.00 70 1019.5
20260501225614 12 180 0.0 0.0 0.00 0.00 0.00 69 1019.5
20260501225059 12 180 0.0 0.0 0.00 0.00 0.00 69 1019.6
20260501224622 12 180 0.0 0.0 0.00 0.00 0.00 69 1019.6
20260501224053 12 180 0.0 0.0 0.00 0.00 0.00 69 1019.7
20260501223612 13 180 0.0 0.0 0.00 0.00 0.00 69 1019.8
20260501223041 13 180 0.0 0.0 0.00 0.00 0.00 69 1019.7
20260501222621 13 180 0.0 0.0 0.00 0.00 0.00 69 1019.7
20260501222054 13 180 0.0 0.0 0.00 0.00 0.00 68 1019.8
20260501221528 13 180 0.0 0.0 0.00 0.00 0.00 68 1019.8
20260501221102 13 180 0.0 0.0 0.00 0.00 0.00 67 1019.8
20260501220529 13 180 0.0 0.0 0.00 0.00 0.00 67 1019.8
20260501220057 13 180 0.0 0.0 0.00 0.00 0.00 67 1019.8
20260501215621 13 180 0.0 0.0 0.00 0.00 0.00 67 1019.8
20260501215150 13 180 0.0 0.0 0.00 0.00 0.00 67 1019.8